Location: Degersen
(52.2871°N, 9.5716°E)
Time: 00:21:26
(UTC+00:00)

Cosmos 2074 Rocket - Pass Details

Date: 20 January 2026
Orbit: 966 x 986 km, 82.9° (Epoch: 9 February)

Event Time Altitude Azimuth Distance (km) Brightness Sun altitude
Rises 04:20:31 0° 184° (S) 3,683 7.0 -26.7°
Reaches altitude 10° 04:23:01 10° 183° (S) 2,738 6.3 -26.4°
Maximum altitude 04:29:18 81° 98° (E) 1,002 4.0 -25.4°
Drops below altitude 10° 04:35:37 10° 12° (NNE) 2,748 6.5 -24.4°
Sets 04:38:08 0° 11° (NNE) 3,697 7.1 -24.0°
